STARLINK-31960, 59931

Orbit data source: Space-Track

STARLINK-31960, 59931 is a payload satellite owned by SpaceX/Seattle (US) in LEO that was launched on Sat, 01 Jun 2024 UTC via an FALCON 9 launch vehicle from the Air Force Eastern Test Range (AFETR). Payloads include a variety of satellites, spacecraft, and rockets equipped with specific instruments for various scientific and technological missions. These include communications satellites like Starlink; space stations such as the ISS; scientific satellites like the Hubble; Earth observation satellites from companies like Planet Labs, Umbra, and HawkEye 360; GPS; miniature CubeSats for education and research; and military/defense satellites.

Loading next visibility...
STARLINK-31960 details
Identifier
59931, 2024-106K
Orbit
LEO
Last TLE update9 hours ago
Origin
Flag of USSpaceX/Seattle (US)
ManufacturerSpaceX/Seattle
MissionOperational spacecraft
Bus & MotorSTARLINK V2M, Unknown motor
Mass730 kg wet, ~700 kg dry
Launch date (UTC)
2024-06-01 (8 months ago)
Launch vehicle
FALCON 9
Launch site
Air Force Eastern Test Range (AFETR)
Object type
Payload
Rocket body
Debris
Shape & HBRUnknown
Radar Cross SectionLarge (>1 m²)

Expand to show TLE details & history

TLE from 9 hours ago
0 STARLINK-31960
1 59931U 24106K   25040.26558249  .00000384  00000-0  16466-4 0  9994
2 59931  43.0077  38.7086 0001000 241.9516 118.1239 15.40683330 40306
Epoch: 2025-02-09T06:22Z
Definitive object data (Epoch: 2025-02-09T06:22:26.327Z)
Latitude-0.00004°
Longitude163.49728°
Altitude444.188 km
Speed7.647 km/s
True Right ascension02h 34m 50s
True Declination0° 00' 00"
Sunlit
Object was in daylight at TLE epoch
Visualization TLE readout
Latitude20.19753°
Longitude-175.68393°
Altitude444.013 km
Speed7.649 km/s
Apparent Right ascension04h 54m 58s
Apparent Declination-9° 03' 26"
Sunlit
Object is in daylight
Visualization observer readout
Local Sidereal Time18:09:53
Azimuth33.484° NE
Elevation-54.918°
Doppler factor1
Orbital elements
Apogee altitude446.729 km
Perigee altitude445.364 km
Semi-major axis6,824.183 km
Eccentricity0.0001
Inclination43.0077°
RAAN38.7086°
Arg. of periapsis241.9516°
True anomaly118.13401°
Mean anomaly118.1239°
Eccentric anomaly118.12895°
Mean motion3.85006 °/min
BSTAR0.000016466
Orbital period93.51 mins
Loading maneuver chart data...
Loading historical data...
Loading historical data...
Loading historical data...
Loading historical data...
Loading historical data...
Loading historical data...
Loading historical data...

STARLINK-31960 Visibility forecast

Observer location: undefined°, undefined

Span
Click to sort rows by Start time (UTC) header in descending order
Start Az.
Max El. time (UTC)
Max El. Az.
Max El.
End time (UTC)
End Az.
5 mins2025-02-10 02:48:24.090Z203.958° SW2025-02-10 02:50:24.090Z159.461° S26.184°2025-02-10 02:53:24.090Z89.926° E
5 mins2025-02-10 04:26:24.090Z263.182° W2025-02-10 04:28:24.090Z313.65° NW43.095°2025-02-10 04:31:24.090Z69.144° E
4 mins2025-02-10 06:05:24.090Z301.872° NW2025-02-10 06:07:24.090Z33.737° NE35.392°2025-02-10 06:09:24.090Z74.998° E
5 mins2025-02-10 07:43:24.090Z284.283° WNW2025-02-10 07:45:24.090Z142.597° SSE43.513°2025-02-10 07:48:24.090Z114.002° SE
|